TimeMST,TemperatureF,Dew PointF,Humidity,Sea Level PressureIn,VisibilityMPH,Wind Direction,Wind SpeedMPH,Gust SpeedMPH,PrecipitationIn,Events,Conditions,WindDirDegrees,DateUTC
12:53 AM,30.9,26.1,82,30.32,10.0,West,5.8,-,N/A,,Clear,270,2012-11-20 07:53:00
1:53 AM,30.0,26.1,85,30.32,10.0,West,4.6,-,N/A,,Clear,280,2012-11-20 08:53:00
2:53 AM,32.0,26.1,79,30.31,10.0,Calm,Calm,-,N/A,,Clear,0,2012-11-20 09:53:00
3:53 AM,28.9,25.0,85,30.32,10.0,Calm,Calm,-,N/A,,Clear,0,2012-11-20 10:53:00
4:53 AM,28.0,24.1,85,30.34,10.0,NW,3.5,-,N/A,,Clear,310,2012-11-20 11:53:00
5:53 AM,27.0,23.0,85,30.37,10.0,WNW,3.5,-,N/A,,Clear,300,2012-11-20 12:53:00
6:53 AM,27.0,23.0,85,30.40,10.0,West,3.5,-,N/A,,Clear,280,2012-11-20 13:53:00
7:53 AM,28.9,25.0,85,30.41,10.0,West,4.6,-,N/A,,Clear,280,2012-11-20 14:53:00
8:53 AM,37.9,30.9,76,30.37,10.0,Calm,Calm,-,N/A,,Clear,0,2012-11-20 15:53:00
9:53 AM,42.1,32.0,67,30.36,10.0,ESE,3.5,-,N/A,,Clear,120,2012-11-20 16:53:00
10:53 AM,43.0,30.9,62,30.35,10.0,Calm,Calm,-,N/A,,Clear,0,2012-11-20 17:53:00
12:53 PM,48.9,30.9,50,30.26,10.0,East,4.6,-,N/A,,Clear,100,2012-11-20 19:53:00
1:53 PM,51.1,30.0,44,30.22,10.0,Calm,Calm,-,N/A,,Clear,0,2012-11-20 20:53:00
2:53 PM,53.1,30.0,41,30.19,10.0,East,5.8,-,N/A,,Clear,80,2012-11-20 21:53:00
3:53 PM,52.0,30.0,43,30.19,10.0,Calm,Calm,-,N/A,,Clear,0,2012-11-20 22:53:00
4:53 PM,48.0,30.0,50,30.21,10.0,Calm,Calm,-,N/A,,Clear,0,2012-11-20 23:53:00
5:53 PM,42.1,30.0,62,30.23,10.0,Calm,Calm,-,N/A,,Clear,0,2012-11-21 00:53:00
6:53 PM,39.0,30.0,70,30.25,10.0,West,4.6,-,N/A,,Clear,270,2012-11-21 01:53:00
7:53 PM,37.9,30.0,73,30.25,10.0,WNW,5.8,-,N/A,,Clear,300,2012-11-21 02:53:00
8:53 PM,37.0,28.9,73,30.21,10.0,WNW,5.8,-,N/A,,Clear,300,2012-11-21 03:53:00
9:53 PM,36.0,28.0,73,30.20,10.0,WNW,4.6,-,N/A,,Clear,290,2012-11-21 04:53:00
10:53 PM,32.0,27.0,82,30.19,10.0,WNW,3.5,-,N/A,,Clear,300,2012-11-21 05:53:00
11:53 PM,30.9,26.1,82,30.19,10.0,NW,3.5,-,N/A,,Clear,310,2012-11-21 06:53:00